Find OneWeb SL0302

NORAD ID: 49091 Int'l Des: 2021-075 Owner: ONEWEBN Country: UK Constellation: oneweb operational
LEOCIRCULARPOLARONEWEB_TYPE

リアルタイム位置

3D地球を読み込み中...

OneWeb SL0302について

説明を読み込み中...

次回通過

Passes for default location (London). Set your location on the main map for personalized predictions.

高度履歴

Loading altitude history...

軌道要素

1 49091U 21075S 26124.08582419 .00000179 00000-0 46322-3 0 9997
2 49091 87.8990 359.4312 0001435 77.6425 282.4864 13.12444446228769
Epoch: May 4, 2026 • Age: 13 hours

現在のステータス

高度 1227.0 km
速度 7.24 km/s
衛星直下点 -34.16°S, 85.01°W
打ち上げ日 Aug 21, 2021
運用期間 4.7 years
タイプ internet

技術仕様

分類 Payload
質量 148.00 kg
乾燥質量 140.00 kg
総質量 148.00 kg
長さ 1.30 m
直径 1.00 m
スパン 5.00 m
形状 Trapezoid+2 pan
製造者 ONEWUS
バスタイプ ARROW
フェーズステータス In Orbit
所有者/国 ONEWEBN/UK

Most Searched